SL-14 DEB, 45308

Orbit data source: Space-Track

SL-14 DEB, 45308 is space debris in LEO originally from a launch on Thu, 15 Aug 1991 UTC launched from the Plesetsk Missile And Space Complex (PKMTR). Debris objects in space refer to the collection of defunct objects orbiting the Earth. Examples of debris include non-operational satellites, rocket bodies, and fragments generated from explosions, collisions, or faulty payload assembly.

Loading next visibility...
Identifier
45308, 1991-056AW
Orbit
LEO
Country
Flag of CISCIS
Related business
Manufacturer
Unknown
Mission
Spacecraft
Bus & Motor
Unknown
Mass
Unknown
Launch date (UTC)
1991-08-15 (34 years ago)
Launch vehicle
Unknown
Launch site
Plesetsk Missile And Space Complex (PKMTR)
Object type
Payload
Rocket body
Debris
Shape & HBR
Unknown shape, 0.1 m
Radar Cross Section
Small (<0.1 m²)

Expand to show TLE details & history
Last TLE update: 11 hours ago

TLE from 11 hours ago
0 SL-14 DEB
1 45308U 91056AW  26035.47978179  .00000527  00000-0  12232-2 0  9995
2 45308  82.5719 224.5590 0026859  15.9046 344.2917 13.22888542286814
Epoch: 2026-02-04T11:30Z
TLE epoch observation values (Epoch: 2026-02-04T11:30:53.146Z)
Latitude
-0.00004°
Longitude
-82.80821°
Altitude
1,156.998 km
Speed
7.284 km/s
True Right ascension
14h 58m 14s
True Declination
0° 00' 00"
Sunlit
Object was in daylight at epoch
Visualization orbit readout
Latitude
Unknown
Longitude
Unknown
Altitude
Unknown
Speed
Unknown
Apparent Right ascension
Unknown
Apparent Declination
Unknown
Sunlit
N/A
Visualization observer readout
Local Sidereal Time
00:46:44
Azimuth
Unknown
Elevation
Unknown
Doppler factor
Unknown
Orbital elements
Apogee altitude
1,191.219 km
Perigee altitude
1,150.666 km
Semi-major axis
7,549.08 km
Eccentricity
0.00269
Inclination
82.5719°
RAAN
224.559°
Arg. of periapsis
15.9046°
True anomaly
344.2081°
Mean anomaly
344.2917°
Eccentric anomaly
344.24993°
Mean motion
3.30904 °/min
Orbital period
108.79 mins
BSTAR
0.0012232
Loading maneuver chart data...
Computing Atmospheric mass density...
Loading historical data...
Loading historical data...
Loading historical data...
Loading historical data...
Loading historical data...
Loading historical data...
Loading historical data...

Documentation

Showing up to 5 results
|